GW1852 Weather Reports


Display with metric or nautical units.
time (UTC)temp
F
wind
direction
speed
MPH
gust
MPH
rain 1hr
in
rain 24hr
in
rain mn
in
humidity
%
barometer
mb
20260508161511 62 123 0.0 2.0 0.00 0.00 0.00 53 1012.6
20260508160012 59 148 1.0 3.0 0.00 0.00 0.00 58 1012.7
20260508154504 57 113 2.0 3.0 0.00 0.00 0.00 62 1012.8
20260508153003 57 168 1.0 2.0 0.00 0.00 0.00 61 1013.0
20260508151602 56 198 1.0 2.0 0.00 0.00 0.00 63 1013.0
20260508150054 53 202 1.0 2.0 0.00 0.00 0.00 70 1013.1
20260508144554 51 231 0.0 2.0 0.00 0.00 0.00 74 1013.3
20260508143057 50 255 2.0 4.0 0.00 0.00 0.00 76 1013.4
20260508141552 49 223 1.0 3.0 0.00 0.00 0.00 76 1013.4
20260508140056 47 246 1.0 4.0 0.00 0.00 0.00 80 1013.6
20260508134553 46 273 2.0 5.0 0.00 0.00 0.00 83 1013.6
20260508133055 44 278 2.0 7.0 0.00 0.00 0.00 84 1013.6
20260508131549 44 272 2.0 6.0 0.00 0.00 0.00 84 1013.6
20260508130100 44 283 1.0 2.0 0.00 0.00 0.00 87 1013.6
20260508124549 43 275 1.0 3.0 0.00 0.00 0.00 87 1013.4
20260508123053 42 274 1.0 6.0 0.00 0.00 0.00 87 1013.4
20260508121543 43 256 1.0 3.0 0.00 0.00 0.00 86 1013.5
20260508120038 43 259 0.0 0.0 0.00 0.00 0.00 88 1013.4
20260508114545 43 259 0.0 0.0 0.00 0.00 0.00 87 1013.4
20260508113033 44 259 0.0 2.0 0.00 0.00 0.00 85 1013.5
20260508111532 43 58 0.0 0.0 0.00 0.00 0.00 83 1013.5
20260508110036 44 58 0.0 1.0 0.00 0.00 0.00 83 1013.5
20260508104529 43 58 0.0 2.0 0.00 0.00 0.00 82 1013.5
20260508103037 44 58 0.0 2.0 0.00 0.00 0.00 83 1013.5
20260508101527 44 290 0.0 1.0 0.00 0.00 0.00 82 1013.5
20260508100025 44 295 0.0 3.0 0.00 0.00 0.00 83 1013.6
20260508094539 44 319 1.0 4.0 0.00 0.00 0.00 81 1013.4
20260508093025 44 353 0.0 2.0 0.00 0.00 0.00 81 1013.3
20260508091538 45 357 1.0 3.0 0.00 0.00 0.00 79 1013.5
20260508090016 45 353 0.0 5.0 0.00 0.00 0.00 78 1013.5
20260508084512 46 347 3.0 7.0 0.00 0.00 0.00 77 1013.5
20260508083008 48 354 6.0 9.0 0.00 0.00 0.00 73 1013.3
20260508081521 49 8 5.0 10.0 0.00 0.00 0.00 66 1013.3
20260508080004 49 356 4.0 7.0 0.00 0.00 0.00 66 1013.4
20260508074500 49 359 3.0 7.0 0.00 0.00 0.00 70 1013.4
20260508073108 49 359 3.0 8.0 0.00 0.00 0.00 71 1013.5
20260508071622 49 353 2.0 4.0 0.00 0.00 0.00 71 1013.4
20260508070101 50 326 1.0 5.0 0.00 0.00 0.00 69 1013.5
20260508064552 50 1 1.0 4.0 0.00 0.00 0.00 73 1013.3
20260508063048 51 11 2.0 4.0 0.00 0.00 0.00 68 1013.2
20260508061547 53 341 3.0 6.0 0.00 0.00 0.00 63 1013.1
20260508060043 52 278 0.0 5.0 0.00 0.00 0.00 64 1013.1
20260508054547 52 233 0.0 3.0 0.00 0.00 0.00 67 1013.1
20260508053044 54 356 4.0 7.0 0.00 0.00 0.00 60 1012.9
20260508051542 54 2 0.0 0.0 0.00 0.00 0.00 62 1012.9
20260508050036 55 14 0.0 0.0 0.00 0.00 0.00 57 1012.9
20260508044536 55 13 0.0 0.0 0.00 0.00 0.00 54 1012.9
20260508043035 57 347 0.0 0.0 0.00 0.00 0.00 52 1012.9
20260508041537 58 318 0.0 0.0 0.00 0.00 0.00 48 1012.9
20260508040037 57 6 0.0 0.0 0.00 0.00 0.00 55 1013.0
20260508034538 57 8 0.0 0.0 0.00 0.00 0.00 52 1013.0
20260508033043 58 356 0.0 0.0 0.00 0.00 0.00 53 1012.9
20260508031537 59 297 0.0 0.0 0.00 0.00 0.00 50 1012.8
20260508030035 60 297 0.0 0.0 0.00 0.00 0.00 44 1012.7
20260508024535 60 335 0.0 0.0 0.00 0.00 0.00 47 1012.9
20260508023037 59 336 0.0 0.0 0.00 0.00 0.00 48 1012.3
20260508021531 60 319 2.0 4.0 0.00 0.00 0.00 48 1012.0
20260508020030 62 311 2.0 4.0 0.00 0.00 0.00 42 1011.9
20260508014529 63 322 1.0 2.0 0.00 0.00 0.00 41 1011.8
20260508013029 64 328 1.0 3.0 0.00 0.00 0.00 41 1011.8
20260508011529 66 314 3.0 6.0 0.00 0.00 0.00 37 1011.7
20260508010031 66 341 4.0 8.0 0.00 0.00 0.00 40 1011.8
20260508004528 67 327 6.0 9.0 0.00 0.00 0.00 38 1011.8
20260508003025 67 321 5.0 10.0 0.00 0.00 0.00 40 1011.7
20260508001539 66 298 9.0 12.0 0.00 0.00 0.00 39 1011.7
20260508000022 65 338 7.0 17.0 0.00 0.00 0.00 43 1011.8
20260507234520 65 300 15.0 22.0 0.00 0.00 0.00 44 1011.7
20260507233025 66 285 8.0 12.0 0.00 0.00 0.00 38 1011.6
20260507231522 65 288 7.0 10.0 0.00 0.00 0.00 37 1011.6
20260507230027 65 270 5.0 7.0 0.00 0.00 0.00 38 1011.6
20260507224527 65 282 7.0 11.0 0.00 0.00 0.00 36 1011.7
20260507223017 65 267 7.0 16.0 0.00 0.00 0.00 41 1011.8
20260507221523 65 296 14.0 21.0 0.00 0.00 0.00 37 1011.8
20260507220018 65 272 6.0 10.0 0.00 0.00 0.00 37 1011.9
20260507214515 65 276 8.0 13.0 0.00 0.00 0.00 38 1012.0
20260507213015 67 264 13.0 20.0 0.00 0.00 0.00 34 1012.1
20260507211528 66 283 6.0 13.0 0.00 0.00 0.00 37 1012.2
20260507210014 68 290 8.0 13.0 0.00 0.00 0.00 32 1012.2
20260507204512 67 277 7.0 10.0 0.00 0.00 0.00 33 1012.4
20260507203011 66 31 3.0 8.0 0.00 0.00 0.00 33 1012.4
20260507201516 65 335 5.0 9.0 0.00 0.00 0.00 36 1012.4
20260507200012 66 340 4.0 9.0 0.00 0.00 0.00 35 1012.4
20260507194509 67 292 8.0 17.0 0.00 0.00 0.00 32 1012.3
20260507193008 67 292 9.0 16.0 0.00 0.00 0.00 32 1012.2
20260507191507 68 340 8.0 12.0 0.00 0.00 0.00 31 1012.2
20260507190006 65 317 5.0 8.0 0.00 0.00 0.00 35 1012.2
20260507184505 65 293 5.0 9.0 0.00 0.00 0.00 34 1012.3
20260507183005 65 277 6.0 10.0 0.00 0.00 0.00 33 1012.4
20260507181504 67 333 6.0 10.0 0.00 0.00 0.00 33 1012.5
20260507180003 67 338 6.0 10.0 0.00 0.00 0.00 32 1012.6
20260507174603 65 295 4.0 10.0 0.00 0.00 0.00 33 1012.8
20260507173106 65 340 7.0 10.0 0.00 0.00 0.00 35 1013.0
20260507171558 65 290 0.0 9.0 0.00 0.00 0.00 34 1012.9
20260507170058 63 311 0.0 9.0 0.00 0.00 0.00 36 1012.9
20260507164554 63 305 0.0 9.0 0.00 0.00 0.00 36 1012.9
20260507163056 62 298 0.0 0.0 0.00 0.00 0.00 38 1013.0